Volver al catálogo

STARLINK-34540

ActivoComunicacionesSSO
NORAD 65657·PAYLOAD·🇺🇸 United States

Lanzado Sep 19, 2025 desde Vandenberg Space Force Base

Loading…

Próximos Pases (próximas 24 horas)

TLE

ActualizadoSource: CelesTrak SupGP

Época: Sep 15, 2026, 02:37 UTC

1 65657C 25211F   26258.10951389  .00006503  00000+0  20187-3 0  2581
2 65657  97.2835 298.3751 0000983  89.6416 295.5454 15.33435686    13

Sigue STARLINK-34540 en tiempo real con AllMySat

Download on the App Store